BEIDOU-2 G7 (C03)

Last updated on Jan. 24, 2021, 6:19 a.m. UTC

1 41586U 16037A   21023.92482861 -.00000343  00000-0  00000-0 0  9990
2 41586   1.9505  69.4478 0008693 356.8993 140.5387  1.00268193 17032
UTC
Height (km)
Latitude
Longitude
Inclination
Orbital Period
UTC large
Height (km)
Speed (km/s)
/
Latitude / Longitude
Inclination (degrees)
Orbital Period (minutes)
Azimuth
Elevation
Range (km)
Doppler Factor
iOS Compass Heading
iOS Angle

Next 30 passes for location: Hong Kong

Rise time Rise Azimuth (degrees) Set time Set Azimuth (degrees) Duration Max altitude (degrees)

No matching passes for this satellites